Printer-friendly version

IAU Minor Planet Center

Minor Planet Center

MPEC 2002-F37 : 2000 OJ8

The following Minor Planet Electronic Circular may be linked-to from your own Web pages, but must not otherwise be redistributed electronically.


Read MPEC 2002-F36 Read MPEC 2002-F38


M.P.E.C. 2002-F37                                Issued 2002 Mar. 21, 16:41 UT

     The Minor Planet Electronic Circulars contain information on unusual
         minor planets and routine data on comets.  They are published
   on behalf of Commission 20 of the International Astronomical Union by the
          Minor Planet Center, Smithsonian Astrophysical Observatory,
                          Cambridge, MA 02138, U.S.A.

             Prepared using the Tamkin Foundation Computer Network

                              MPC@CFA.HARVARD.EDU
          URL http://cfa-www.harvard.edu/iau/mpc.html  ISSN 1523-6714

                                   2000 OJ8

                           Revision to MPEC 2000-P06

Observations:
     K00O08J HC2002 03 13.42576 14 30 16.54 -17 26 50.9          21.3 V      291
     K00O08J HC2002 03 13.43569 14 30 16.26 -17 26 49.6          21.6 V      291
     K00O08J HC2002 03 13.44527 14 30 16.00 -17 26 48.8          21.3 V      291
     K00O08J HC2002 03 21.41183 14 25 47.76 -17 03 13.3          22.8 V      291
     K00O08J HC2002 03 21.41974 14 25 47.36 -17 03 09.6          22.9 V      291
     K00O08J HC2002 03 21.42932 14 25 47.05 -17 03 08.3          22.9 V      291

Observer details:
291 LPL/Spacewatch II.  Observers A. S. Descour, J. A. Larsen.  1.8-m
    Spacewatch telescope.

First and last observations above in comparison with prediction:
Residuals in seconds of arc, reference and Delta-T
020313 291  2.5+  0.7+    020321 291  2.5+  1.0+    MPO 10961   -0.00006 day

Orbital elements:
2000 OJ8                                                             PHA 0.001
Epoch 2002 May 6.0 TT = JDT 2452400.5                   MPC
M 140.47992              (2000.0)            P               Q
n   0.27138469     Peri.  180.51875     +0.67718479     -0.73159436
a   2.3627213      Node   226.86021     +0.67548295     +0.66050113
e   0.5649360      Incl.    6.19003     +0.29179367     +0.16884298
P   3.63           H   16.8           G   0.15           U   2
Residuals in seconds of arc
000730 704  0.6-  0.3+    000803 704  0.4-  0.7+    001029 711  1.3+  0.0
000730 704  0.2-  0.5+    000803 704  0.0   0.8+    001029 711  1.3+  0.1-
000730 704  0.6-  0.2+    000803 360  0.0   0.1-    001029 711  1.4+  0.0
000730 704  1.0-  0.2+    000803 360  0.3+  0.1-    001031 670  0.7-  0.1-
000730 704  0.4-  0.1+    000803 360  0.2+  0.2-    001031 670  0.2+  0.2-
000730 557  0.1+  0.6+    000809 422  0.5-  0.5+    001031 670  1.7-  1.0-
000730 046  0.8+  0.6-    000809 422  0.2+  0.3+    001105 046  0.2-  0.4-
000730 046  0.3-  0.2+    000809 422  0.0   0.5-    001105 046  0.2-  0.2-
000730 046  0.1+  0.5+    000817 739  1.4+  1.5+    001105 046  0.2+  0.2+
000730 046  0.3+  0.5+    000817 739  1.3-  0.3-    001105 046  1.3+  0.6-
000730 557  0.0   0.2+    000817 739  2.3-  1.2-    001112 046  1.2-  0.5+
000730 557  0.1-  0.2+    000817 739  1.6-  0.5-    001112 046  0.2-  0.8+
000730 046  0.5-  0.8+    000819 118  0.1+  0.0     001112 046  0.5-  0.5+
000730 151  0.8+  0.3+    000819 118  0.1+  0.5-    001112 046  0.4+  0.6+
000730 151  0.3-  0.1-    000819 118  0.2+  0.1-    001112 046  1.5-  0.6-
000730 151  0.4+  0.6+    000820 860  1.4-  0.0     001118 704  0.2+  0.1+
000730 151  0.8-  0.7+    000820 860  0.5-  0.4+    001118 704  0.0   0.1+
000730 151  0.6+  0.0     000821 118  0.0   0.5-    001118 704  0.1-  0.3-
000730 151  0.1-  1.4+    000821 118  0.2-  0.0     001118 704  0.2-  1.2-
000730 143  1.2-  1.1+    000822 587  1.7-  0.6-    001121 704  0.6+  0.9+
000730 143  0.1-  0.2+    000822 587  0.7-  0.2+    001121 704  0.3-  0.1+
000730 143  1.8+  0.6+    000824 658  0.0   0.3+    001121 704  0.3-  0.6+
000731 859  0.6-  0.2+    000824 658  0.1-  0.1+    001121 704  0.1+  0.6-
000731 859  0.3-  0.1+    000824 658  0.6+  0.3+    001222 113  0.1-  0.0
000731 859  0.1+  0.0     000825 658  0.2+  0.4+    001222 113  1.3+  1.6+
000731 859  0.7-  0.2-    000825 658  0.3-  0.4+    001222 113  0.2-  1.4+
000731 808  1.3+  1.8-    000825 658  0.6+  0.1+    001223 704  0.6-  0.2-
000731 808  0.3+  1.8-    000826 808  0.2-  0.8+    001223 704  0.3-  0.1-
000731 808  0.4+  1.5-    000826 808  0.2-  0.5+    001223 704  0.2-  0.1-
000731 808  0.1+  1.6-    000826 608  0.5-  0.3-    001223 704  0.0   0.1+
000731 658  0.1-  0.0     000826 608  0.6-  0.4-    001223 704  0.1-  0.1-
000731 658  0.0   0.1+    000826 608  0.1-  0.2-    001223 428  0.2+  1.1-
000731 658  0.5-  0.2+    000827 118  0.5+  0.4-    001223 428  0.5-  0.6-
000731 704  0.5+  0.8+    000827 118  0.3+  0.2-    001223 106  0.9+  0.3+
000731 704  0.4-  0.3+    000831 704  0.2+  0.1+    001223 106  0.3-  0.4-
000731 474  0.2-  0.1+    000831 704  0.2+  0.4+    001229 711  1.1-  0.9-
000731 474  0.3-  0.3+    000831 704  0.0   0.1+    001229 711  0.8-  0.7-
000731 474  0.1-  0.3+    000831 704  0.1+  0.0     001229 711  0.6-  0.8-
000731 704  0.8-  0.0     000831 704  0.8+  0.4+    010112 118  0.6+  0.0
000731 557  0.2-  0.6-    000903 711  0.2-  0.2-    010112 118  0.1+  0.1+
000731 557  0.1-  0.4-    000903 711  1.3+  0.2+    010113 118  0.3-  0.2-
000731 118  0.2-  0.6+    000903 711  0.4-  0.1+    010113 118  0.5-  0.4-
000731 557  0.0   0.4-    000905 704  0.6+  0.4-    010119 704  0.0   0.0
000731 118  0.1-  0.2-    000905 704  0.3+  0.2+    010119 704  0.0   0.6-
000731 118  0.2-  0.5+    000905 704  0.8+  0.5+    010119 704  0.3-  0.2+
000731 163  1.5+  0.6+    000905 704  0.3+  0.0     010119 704  0.2+  0.2+
000731 163  0.0   0.0     000905 704  0.1+  0.1+    010119 704  0.2-  0.1+
000731 163  0.3+  0.1+    000905 360  0.1-  0.0     010121 704  0.4+  0.2+
000731 106  0.4-  0.1+    000905 360  0.1-  0.2-    010121 704  0.1-  0.1-
000731 106  0.1-  0.5+    000905 360  0.4+  0.0     010121 704  0.6-  0.2+
000731 587  0.4+  0.2+    000906 704  0.2-  0.5+    010121 704  0.4-  0.2+
000731 106  0.2+  0.7+    000906 704  0.8+  0.1-    010126 071  0.4-  0.1-
000731 587  0.3+  1.0+    000906 704  0.5+  0.2-    010126 071  0.1+  0.3+
000801 808  0.5+  2.8-    000906 704  0.5+  0.3+    010126 071  0.0   0.1+
000801 739  0.0   0.5-    000906 704  1.7+  1.8+    010126 108 (5.3-  0.2-)
000801 739  0.5+  0.1-    000907 704  1.2-  0.0     010126 108  1.1+  0.2-
000801 739  0.3+  0.3-    000907 704  2.5-  0.4+    010126 108  2.1-  0.4+
000801 704  0.4+  0.3+    000907 704  1.7-  1.6-    010127 151  0.3-  0.1-
000801 704  0.1+  0.2+    000918 413  0.1+  0.1-    010127 151  0.0   0.1-
000801 808  0.1-  1.7-    000918 413  0.0   0.1-    010127 151  0.4-  0.1+
000801 704  0.1+  0.0     000918 413  0.1+  0.0     010127 151  0.1+  0.1-
000801 704  0.2-  0.3+    000918 413  0.1+  0.1-    010127 151  0.1-  0.1+
000801 704  0.1-  0.5+    000918 413  0.1+  0.2-    010127 151  0.0   0.1+
000801 711  0.1+  0.4-    000920 413  0.2+  0.2+    010128 608  2.4+  0.9+
000801 658  0.2+  0.4+    000920 413  0.5+  0.2+    010128 608  2.4+  1.0+
000801 711  0.0   0.3-    000920 413  0.2+  0.1+    010128 608  2.3+  0.6+
000801 658  0.0   0.4+    000923 704  0.3+  0.1+    010128 046  0.5-  0.3+
000801 658  0.5-  0.9+    000923 704  0.6+  0.2+    010128 046  0.7-  0.3+
000801 711  0.2+  0.2-    000923 704  0.2+  0.0     010128 046  0.3-  0.2+
000801 118  0.0   0.2-    000923 704  0.4+  0.1+    010128 046  0.0   0.3+
000801 118  0.2+  0.7+    000923 704  1.3+  0.5+    010129 608  1.4+  2.5+
000802 704  0.3+  0.1+    000927 360  0.3+  0.5-    010129 608  1.3+  2.6+
000802 704  0.4-  0.2+    000927 360  0.4+  0.2-    010129 608  1.4+  2.7+
000802 704  0.1-  0.5+    000927 360  0.4+  0.0     010217 704  0.6+  0.1-
000802 704  0.1-  0.3+    001022 046  0.2+  0.3-    010217 704  0.4-  0.4+
000802 704  0.4+  0.7+    001022 046  0.5-  0.1+    010217 704  0.7+  0.6+
000802 704  0.5-  0.4+    001022 046  0.1+  0.0     020313 291  0.3+  1.2+
000802 704  0.2+  0.3+    001022 046  0.1-  0.2+    020313 291  0.5+  1.0+
000802 704  0.3-  0.5+    001022 046  0.1+  0.1-    020313 291  0.9+  0.4+
000802 704  0.3-  0.9+    001023 046  0.2-  0.1-    020321 291  0.5+  0.1+
000803 704  0.4+  0.2+    001023 046  0.0   0.2-    020321 291  0.8-  2.2+
000803 704  0.4-  0.3+    001023 046  0.2-  0.1-    020321 291  0.2+  1.5+
000803 704  0.1+  0.3+    001023 046  0.0   0.2-

Ephemeris:
2000 OJ8                 a,e,i = 2.36, 0.56, 6                   q = 1.0279
Date    TT    R. A. (2000) Decl.     Delta      r     Elong.  Phase     V
2002 03 07    14 32.91   -17 40.3    2.772    3.435   124.7    13.7    22.5
2002 03 17    14 28.43   -17 17.2    2.677    3.460   135.8    11.6    22.3
2002 03 27    14 21.94   -16 42.3    2.602    3.484   147.4     8.9    22.2
2002 04 06    14 13.85   -15 56.6    2.553    3.507   159.3     5.8    22.0
2002 04 16    14 04.73   -15 02.3    2.533    3.528   171.3     2.5    21.8
2002 04 26    13 55.34   -14 03.1    2.544    3.548   175.6     1.2    21.8
2002 05 06    13 46.41   -13 03.4    2.586    3.567   164.0     4.5    22.0
2002 05 16    13 38.60   -12 07.8    2.658    3.584   152.3     7.5    22.2

Timothy B. Spahr             (C) Copyright 2002 MPC           M.P.E.C. 2002-F37

Read MPEC 2002-F36 Read MPEC 2002-F38


Our Web policy. Index to the CBAT/MPC/ICQ pages.


Valid HTML 4.01!